• In Hungary
  • List of Countries
  • For 7 days
  • Water Temperature
  • Satellite Maps
  • Weather Map
  • News
  • Weather Widgets
  • user-avatar
    Login

    Hourly Weather Maiduguri

    Today, 19 September, Wednesday

    Time Temperature Precipitation Wind Pressure Humidity
    00:00 +30°C° 0 mm 1 mps 727 mmHg 59%
    01:00 +29°C° 0 mm 1 mps 728 mmHg 63%
    02:00 +28°C° 0 mm 1 mps 727 mmHg 64%
    03:00 +28°C° 0 mm 1 mps 727 mmHg 64%
    04:00 +28°C° 0 mm 1 mps 727 mmHg 65%
    05:00 +28°C° 0 mm 2 mps 727 mmHg 65%
    06:00 +28°C° 0 mm 2 mps 728 mmHg 66%
    07:00 +28°C° 0 mm 2 mps 728 mmHg 66%
    08:00 +30°C° 0.1 mm 2 mps 728 mmHg 60%
    09:00 +32°C° 0.1 mm 2 mps 729 mmHg 54%
    10:00 +35°C° 0.1 mm 2 mps 729 mmHg 47%
    11:00 +37°C° 0 mm 2 mps 728 mmHg 43%
    12:00 +37°C° 0 mm 1 mps 728 mmHg 38%
    13:00 +37°C° 0 mm 0 mps 727 mmHg 33%
    14:00 +39°C° 0 mm 1 mps 727 mmHg 33%
    15:00 +39°C° 0 mm 1 mps 726 mmHg 33%
    16:00 +39°C° 0 mm 2 mps 726 mmHg 33%
    17:00 +37°C° 0 mm 2 mps 726 mmHg 37%
    18:00 +35°C° 0 mm 2 mps 726 mmHg 41%
    19:00 +34°C° 0 mm 2 mps 726 mmHg 45%
    20:00 +32°C° 0.1 mm 2 mps 726 mmHg 47%
    21:00 +32°C° 0.1 mm 2 mps 727 mmHg 48%
    22:00 +31°C° 0.1 mm 1 mps 727 mmHg 50%
    23:00 +31°C° 0 mm 2 mps 727 mmHg 52%

    Tomorrow, 20 September, Thursday

    Time Temperature Precipitation Wind Pressure Humidity
    00:00 +30°C° 0 mm 2 mps 727 mmHg 55%
    01:00 +29°C° 0 mm 2 mps 727 mmHg 57%
    02:00 +29°C° 0 mm 2 mps 726 mmHg 59%
    03:00 +29°C° 0 mm 2 mps 726 mmHg 61%
    04:00 +28°C° 0 mm 3 mps 726 mmHg 63%
    05:00 +28°C° 0 mm 3 mps 726 mmHg 64%
    06:00 +28°C° 0 mm 3 mps 726 mmHg 65%
    07:00 +29°C° 0 mm 3 mps 726 mmHg 66%
    08:00 +31°C° 0 mm 3 mps 727 mmHg 59%
    09:00 +34°C° 0 mm 2 mps 727 mmHg 52%
    10:00 +36°C° 0 mm 2 mps 728 mmHg 46%
    11:00 +38°C° 0 mm 2 mps 727 mmHg 40%
    12:00 +39°C° 0 mm 2 mps 727 mmHg 35%
    13:00 +41°C° 0 mm 1 mps 727 mmHg 30%
    14:00 +40°C° 0 mm 2 mps 726 mmHg 29%
    15:00 +40°C° 0 mm 2 mps 725 mmHg 29%
    16:00 +40°C° 0 mm 2 mps 725 mmHg 28%
    17:00 +38°C° 0 mm 2 mps 725 mmHg 32%
    18:00 +37°C° 0 mm 2 mps 725 mmHg 35%
    19:00 +35°C° 0 mm 2 mps 725 mmHg 38%
    20:00 +33°C° 0 mm 1 mps 725 mmHg 41%
    21:00 +32°C° 0 mm 1 mps 725 mmHg 43%
    22:00 +32°C° 0 mm 1 mps 725 mmHg 46%
    23:00 +31°C° 0 mm 1 mps 725 mmHg 48%

    Day after tomorrow, 21 September, Friday

    Time Temperature Precipitation Wind Pressure Humidity
    00:00 +31°C° 0 mm 2 mps 725 mmHg 50%
    01:00 +30°C° 0 mm 2 mps 725 mmHg 52%
    02:00 +30°C° 0 mm 2 mps 725 mmHg 56%
    03:00 +29°C° 0 mm 3 mps 725 mmHg 59%
    04:00 +29°C° 0 mm 3 mps 725 mmHg 63%
    05:00 +29°C° 0 mm 3 mps 725 mmHg 64%
    06:00 +29°C° 0 mm 3 mps 726 mmHg 64%
    07:00 +29°C° 0 mm 3 mps 726 mmHg 65%
    08:00 +31°C° 0 mm 3 mps 727 mmHg 58%
    09:00 +35°C° 0 mm 4 mps 727 mmHg 52%
    10:00 +37°C° 0 mm 4 mps 728 mmHg 45%
    11:00 +38°C° 0 mm 3 mps 727 mmHg 42%
    12:00 +39°C° 0 mm 3 mps 726 mmHg 38%
    13:00 +39°C° 0 mm 2 mps 726 mmHg 35%
    14:00 +39°C° 0 mm 2 mps 725 mmHg 36%
    15:00 +39°C° 0 mm 1 mps 725 mmHg 36%
    16:00 +39°C° 0 mm 1 mps 724 mmHg 37%
    17:00 +37°C° 0.2 mm 2 mps 724 mmHg 42%
    18:00 +35°C° 0.2 mm 2 mps 724 mmHg 48%
    19:00 +32°C° 0.2 mm 2 mps 724 mmHg 53%
    20:00 +33°C° 0.2 mm 3 mps 725 mmHg 57%
    21:00 +32°C° 0.2 mm 4 mps 726 mmHg 61%
    22:00 +30°C° 0.2 mm 4 mps 727 mmHg 65%
    23:00 +30°C° 0.1 mm 4 mps 726 mmHg 67%

    22 September, Saturday

    Time Temperature Precipitation Wind Pressure Humidity
    00:00 +29°C° 0.1 mm 4 mps 726 mmHg 70%
    01:00 +29°C° 0.1 mm 4 mps 726 mmHg 72%
    02:00 +28°C° 0 mm 3 mps 725 mmHg 73%
    03:00 +28°C° 0 mm 3 mps 725 mmHg 74%
    04:00 +28°C° 0 mm 3 mps 725 mmHg 75%
    05:00 +28°C° 0 mm 3 mps 725 mmHg 74%
    06:00 +28°C° 0 mm 3 mps 726 mmHg 74%
    07:00 +28°C° 0 mm 3 mps 726 mmHg 73%
    08:00 +30°C° 0 mm 3 mps 727 mmHg 65%
    09:00 +33°C° 0 mm 4 mps 727 mmHg 58%
    10:00 +36°C° 0 mm 4 mps 728 mmHg 50%
    11:00 +37°C° 0 mm 4 mps 727 mmHg 46%
    12:00 +38°C° 0 mm 3 mps 726 mmHg 42%
    13:00 +39°C° 0 mm 2 mps 726 mmHg 38%
    14:00 +39°C° 0 mm 2 mps 725 mmHg 37%
    15:00 +39°C° 0 mm 2 mps 725 mmHg 37%
    16:00 +39°C° 0 mm 2 mps 724 mmHg 36%
    17:00 +37°C° 0.4 mm 2 mps 724 mmHg 41%
    18:00 +36°C° 0.4 mm 2 mps 724 mmHg 46%
    19:00 +34°C° 0.4 mm 2 mps 724 mmHg 51%
    20:00 +33°C° 0.5 mm 3 mps 725 mmHg 58%
    21:00 +32°C° 0.5 mm 5 mps 726 mmHg 64%
    22:00 +29°C° 0.5 mm 6 mps 727 mmHg 71%
    23:00 +29°C° 0 mm 5 mps 726 mmHg 72%

    23 September, Sunday

    Time Temperature Precipitation Wind Pressure Humidity
    00:00 +29°C° 0 mm 4 mps 726 mmHg 73%
    01:00 +28°C° 0 mm 3 mps 725 mmHg 73%
    02:00 +28°C° 0 mm 4 mps 725 mmHg 72%
    03:00 +28°C° 0 mm 4 mps 725 mmHg 71%
    04:00 +28°C° 0 mm 4 mps 725 mmHg 70%
    05:00 +28°C° 0 mm 4 mps 726 mmHg 69%
    06:00 +28°C° 0 mm 4 mps 726 mmHg 69%
    07:00 +28°C° 0 mm 4 mps 727 mmHg 69%
    08:00 +30°C° 0 mm 4 mps 727 mmHg 64%
    09:00 +32°C° 0 mm 5 mps 727 mmHg 60%
    10:00 +33°C° 0 mm 5 mps 728 mmHg 56%
    11:00 +35°C° 0 mm 5 mps 727 mmHg 51%
    12:00 +36°C° 0 mm 4 mps 726 mmHg 46%
    13:00 +38°C° 0 mm 4 mps 726 mmHg 41%
    14:00 +38°C° 0 mm 4 mps 725 mmHg 41%
    15:00 +38°C° 0 mm 3 mps 725 mmHg 41%
    16:00 +38°C° 0 mm 3 mps 725 mmHg 41%
    17:00 +36°C° 0.1 mm 3 mps 725 mmHg 45%
    18:00 +35°C° 0.1 mm 3 mps 725 mmHg 50%
    19:00 +32°C° 0.1 mm 2 mps 725 mmHg 55%
    20:00 +31°C° 1.6 mm 3 mps 726 mmHg 61%
    21:00 +30°C° 1.6 mm 4 mps 726 mmHg 68%
    22:00 +29°C° 1.6 mm 5 mps 727 mmHg 74%
    23:00 +28°C° 0.7 mm 4 mps 726 mmHg 76%

    24 September, Monday

    Time Temperature Precipitation Wind Pressure Humidity
    00:00 +28°C° 0.7 mm 4 mps 726 mmHg 78%
    01:00 +28°C° 0.7 mm 3 mps 726 mmHg 79%
    02:00 +27°C° 0.6 mm 4 mps 726 mmHg 79%
    03:00 +27°C° 0.6 mm 4 mps 726 mmHg 79%
    04:00 +27°C° 0.6 mm 5 mps 726 mmHg 78%
    05:00 +27°C° 1.1 mm 4 mps 727 mmHg 79%
    06:00 +26°C° 1.1 mm 4 mps 727 mmHg 79%
    07:00 +26°C° 1.1 mm 3 mps 728 mmHg 79%
    08:00 +28°C° 0 mm 3 mps 728 mmHg 71%
    09:00 +30°C° 0 mm 3 mps 728 mmHg 63%
    10:00 +31°C° 0 mm 3 mps 728 mmHg 56%
    11:00 +34°C° 0 mm 3 mps 728 mmHg 50%
    12:00 +35°C° 0 mm 3 mps 727 mmHg 45%
    13:00 +36°C° 0 mm 3 mps 726 mmHg 40%
    14:00 +37°C° 0 mm 2 mps 726 mmHg 39%
    15:00 +37°C° 0 mm 2 mps 726 mmHg 37%
    16:00 +37°C° 0 mm 2 mps 726 mmHg 36%
    17:00 +35°C° 0 mm 2 mps 726 mmHg 41%
    18:00 +34°C° 0 mm 2 mps 726 mmHg 47%
    19:00 +31°C° 0 mm 2 mps 727 mmHg 52%
    20:00 +31°C° 0 mm 2 mps 727 mmHg 54%
    21:00 +30°C° 0 mm 2 mps 727 mmHg 56%
    22:00 +30°C° 0 mm 1 mps 727 mmHg 58%
    23:00 +29°C° 0.1 mm 2 mps 727 mmHg 61%
    Show more